Madison, SD

5:55 PM CST on November 18, 2019 (GMT -0600)
Madison Municipal

Weather History for KMDS - September, 2019

Change the Weather History Date:

Sunday, September 15, 2019

  Actual Average Record
Temperature  
Mean Temperature 70 °F -  
Max Temperature 80 °F 70 °F 89 °F (2018)
Min Temperature 59 °F 47 °F 32 °F (2011)
Cooling Degree Days 4    
Growing Degree Days 20 (Base 50)    
Moisture  
Dew Point 65 °F    
Average Humidity 89    
Maximum Humidity 100    
Minimum Humidity 45    
Precipitation  
Precipitation 0.00 in - - ()
Sea Level Pressure  
Sea Level Pressure 29.99 in    
Wind  
Wind Speed 5 mph ()    
Max Wind Speed 14 mph    
Max Gust Speed 17 mph    
Visibility 5.7 miles    
Events Fog    
Averages and records for this station are not official NWS values.
T = Trace of Precipitation, MM = Missing Value Source: Averaged Metar Reports

Daily Weather History Graph

Daily Weather History Graph

Search for Another Location

Airport or City:

Astronomy

Sep. 15, 2019 Rise Set
Actual Time 7:07 AM CDT 7:39 PM CDT
Civil Twilight 6:38 AM CDT 8:08 PM CDT
Nautical Twilight 6:03 AM CDT 8:42 PM CDT
Astronomical Twilight 5:28 AM CDT 9:17 PM CDT
Moon 8:45 PM CDT (9/15) 8:19 AM CDT (9/15)
Length of Visible Light 13h 29m
Length of Day
12h 31m
Full, 98% of the Moon is Illuminated
Sep 15
Full
Sep 21
Last Quarter
Sep 28
New
Oct 5
First Quarter
Oct 13
Full

Hourly Weather History & Observations

Time (CDT) Temp. Heat Index Dew Point Humidity Pressure Visibility Wind Dir Wind Speed Gust Speed Precip Events Conditions
12:00 AM 59.0 °F - 59.0 °F 100% 29.96 in 0.2 mi North 5.8 mph - N/A Fog Fog
12:15 AM 59.0 °F - 59.0 °F 100% 29.97 in 0.2 mi North 6.9 mph - N/A Fog Fog
12:20 AM 59.0 °F - 59.0 °F 100% 29.96 in 0.2 mi NE 5.8 mph - N/A Fog Fog
12:35 AM 62.6 °F - 62.6 °F 100% 29.96 in 0.5 mi ENE 4.6 mph - N/A Fog Fog
12:55 AM 62.6 °F - 62.6 °F 100% 29.96 in 1.0 mi ENE 3.5 mph - N/A   Overcast
1:00 AM 62.6 °F - 62.6 °F 100% 29.96 in 0.8 mi NE 3.5 mph - N/A   Overcast
1:15 AM 62.6 °F - 62.6 °F 100% 29.97 in 1.0 mi Calm Calm - N/A   Overcast
1:20 AM 62.6 °F - 62.6 °F 100% 29.97 in 0.5 mi Calm Calm - N/A Fog Fog
1:35 AM 62.6 °F - 62.6 °F 100% 29.97 in 0.2 mi NNE 3.5 mph - N/A Fog Fog
1:55 AM 64.4 °F - 64.4 °F 100% 29.97 in 0.2 mi Calm Calm - N/A Fog Fog
2:15 AM 64.4 °F - 64.4 °F 100% 29.97 in 0.2 mi Calm Calm - N/A Fog Fog
2:20 AM 64.4 °F - 64.4 °F 100% 29.97 in 0.2 mi Calm Calm - N/A Fog Fog
2:35 AM 64.4 °F - 64.4 °F 100% 29.98 in 0.2 mi Calm Calm - N/A Fog Fog
2:40 AM 64.4 °F - 64.4 °F 100% 29.98 in 0.2 mi Calm Calm - N/A Fog Fog
2:55 AM 64.4 °F - 64.4 °F 100% 29.98 in 0.2 mi Calm Calm - N/A Fog Fog
3:15 AM 64.4 °F - 64.4 °F 100% 29.98 in 0.2 mi Calm Calm - N/A Fog Fog
3:20 AM 64.4 °F - 64.4 °F 100% 29.98 in 0.2 mi Calm Calm - N/A Fog Fog
3:35 AM 64.4 °F - 64.4 °F 100% 29.97 in 0.2 mi ESE 3.5 mph - N/A Fog Fog
3:55 AM 64.4 °F - 64.4 °F 100% 29.96 in 0.2 mi Calm Calm - N/A Fog Fog
4:00 AM 64.4 °F - 64.4 °F 100% 29.96 in 0.2 mi ESE 3.5 mph - N/A Fog Fog
4:15 AM 64.4 °F - 64.4 °F 100% 29.97 in 0.2 mi Calm Calm - N/A Fog Fog
4:35 AM 62.6 °F - 62.6 °F 100% 29.97 in 0.2 mi Calm Calm - N/A Fog Fog
4:55 AM 62.6 °F - 62.6 °F 100% 29.97 in 0.2 mi Calm Calm - N/A Fog Fog
5:00 AM 62.6 °F - 62.6 °F 100% 29.97 in 0.2 mi Calm Calm - N/A Fog Fog
5:15 AM 62.6 °F - 62.6 °F 100% 29.98 in 0.2 mi Calm Calm - N/A Fog Fog
5:20 AM 62.6 °F - 62.6 °F 100% 29.98 in 0.2 mi SSW 3.5 mph - N/A Fog Fog
5:35 AM 64.4 °F - 64.4 °F 100% 29.98 in 0.2 mi SSW 4.6 mph - N/A Fog Fog
5:40 AM 64.4 °F - 64.4 °F 100% 29.98 in 0.2 mi SSW 5.8 mph - N/A Fog Fog
5:55 AM 64.4 °F - 64.4 °F 100% 29.98 in 0.2 mi SW 5.8 mph - N/A Fog Fog
6:00 AM 64.4 °F - 64.4 °F 100% 29.98 in 0.2 mi SW 6.9 mph - N/A Fog Fog
6:15 AM 62.6 °F - 62.6 °F 100% 29.99 in 0.2 mi WSW 6.9 mph - N/A Fog Fog
6:20 AM 62.6 °F - 62.6 °F 100% 29.99 in 0.2 mi WSW 4.6 mph - N/A Fog Fog
6:35 AM 62.6 °F - 62.6 °F 100% 29.99 in 0.2 mi WSW 3.5 mph - N/A Fog Fog
6:55 AM 62.6 °F - 62.6 °F 100% 29.99 in 0.2 mi Calm Calm - N/A Fog Fog
7:15 AM 60.8 °F - 60.8 °F 100% 29.99 in 0.2 mi NW 3.5 mph - N/A Fog Fog
7:20 AM 60.8 °F - 60.8 °F 100% 29.99 in 0.2 mi NW 3.5 mph - N/A Fog Fog
7:35 AM 59.0 °F - 59.0 °F 100% 30.00 in 0.2 mi Calm Calm - N/A Fog Fog
7:40 AM 59.0 °F - 59.0 °F 100% 30.00 in 0.2 mi Calm Calm - N/A Fog Fog
7:55 AM 60.8 °F - 60.8 °F 100% 30.00 in 0.2 mi Calm Calm - N/A Fog Fog
8:15 AM 62.6 °F - 62.6 °F 100% 30.00 in 0.2 mi Calm Calm - N/A Fog Fog
8:20 AM 60.8 °F - 60.8 °F 100% 29.99 in 0.2 mi Calm Calm - N/A Fog Fog
8:35 AM 62.6 °F - 62.6 °F 100% 30.00 in 0.2 mi Calm Calm - N/A Fog Fog
8:40 AM 62.6 °F - 62.6 °F 100% 30.00 in 0.2 mi South 3.5 mph - N/A Fog Fog
8:55 AM 62.6 °F - 62.6 °F 100% 30.00 in 0.2 mi SSW 4.6 mph - N/A Fog Fog
9:35 AM 64.4 °F - 64.4 °F 100% 30.01 in 0.2 mi Calm Calm - N/A Fog Fog
9:40 AM 66.2 °F - 66.2 °F 100% 30.01 in 0.2 mi Calm Calm - N/A Fog Fog
9:55 AM 68.0 °F - 68.0 °F 100% 30.01 in 10.0 mi Calm Calm - N/A   Clear
10:15 AM 68.0 °F - 68.0 °F 100% 30.01 in 10.0 mi SW 3.5 mph - N/A   Clear
10:20 AM 68.0 °F - 68.0 °F 100% 30.01 in 10.0 mi SW 4.6 mph - N/A   Clear
10:35 AM 69.8 °F - 69.8 °F 100% 30.01 in 10.0 mi SSW 4.6 mph - N/A   Clear
10:55 AM 75.2 °F - 75.2 °F 100% 30.00 in 10.0 mi South 4.6 mph - N/A   Clear
11:15 AM 75.2 °F - 75.2 °F 100% 30.01 in 10.0 mi South 5.8 mph - N/A   Clear
11:20 AM 77.0 °F - 75.2 °F 94% 30.01 in 10.0 mi South 5.8 mph - N/A   Clear
11:35 AM 77.0 °F - 75.2 °F 94% 30.01 in 10.0 mi South 4.6 mph - N/A   Clear
11:40 AM 77.0 °F - 73.4 °F 89% 30.01 in 10.0 mi SSW 5.8 mph - N/A   Clear
11:55 AM 78.8 °F - 69.8 °F 74% 30.01 in 10.0 mi South 4.6 mph - N/A   Clear
12:15 PM 80.6 °F 82.7 °F 66.2 °F 61% 30.01 in 10.0 mi South 8.1 mph - N/A   Clear
12:35 PM 80.6 °F 82.7 °F 66.2 °F 61% 30.01 in 10.0 mi South 6.9 mph - N/A   Clear
12:40 PM 80.6 °F 82.7 °F 66.2 °F 61% 30.01 in 10.0 mi South 8.1 mph - N/A   Clear
12:55 PM 80.6 °F 82.3 °F 64.4 °F 58% 30.01 in 10.0 mi SSW 10.4 mph - N/A   Clear
1:15 PM 80.6 °F 81.1 °F 59.0 °F 48% 30.02 in 10.0 mi South 10.4 mph 16.1 mph N/A   Clear
1:35 PM 80.6 °F 81.8 °F 62.6 °F 54% 30.01 in 10.0 mi South 13.8 mph - N/A   Clear
1:55 PM 80.6 °F 81.5 °F 60.8 °F 51% 30.01 in 10.0 mi South 10.4 mph - N/A   Clear
2:00 PM 80.6 °F 81.5 °F 60.8 °F 51% 30.01 in 10.0 mi SSW 10.4 mph - N/A   Clear
2:15 PM 80.6 °F 81.1 °F 59.0 °F 48% 30.00 in 10.0 mi South 11.5 mph - N/A   Clear
2:20 PM 80.6 °F 80.8 °F 57.2 °F 45% 30.00 in 10.0 mi South 12.7 mph - N/A   Clear
2:35 PM 80.6 °F 81.1 °F 59.0 °F 48% 30.00 in 10.0 mi South 12.7 mph 17.3 mph N/A   Clear
2:55 PM 80.6 °F 81.8 °F 62.6 °F 54% 30.00 in 10.0 mi SSE 10.4 mph - N/A   Clear
3:15 PM 80.6 °F 82.3 °F 64.4 °F 58% 30.00 in 10.0 mi South 10.4 mph 17.3 mph N/A   Clear
3:20 PM 80.6 °F 82.7 °F 66.2 °F 61% 29.99 in 10.0 mi South 10.4 mph - N/A   Clear
3:35 PM 80.6 °F 82.3 °F 64.4 °F 58% 29.99 in 10.0 mi South 10.4 mph 16.1 mph N/A   Clear
3:40 PM 80.6 °F 82.3 °F 64.4 °F 58% 29.99 in 10.0 mi SSE 10.4 mph 16.1 mph N/A   Clear
3:55 PM 80.6 °F 82.7 °F 66.2 °F 61% 29.98 in 10.0 mi South 12.7 mph 16.1 mph N/A   Clear
4:15 PM 80.6 °F 83.9 °F 69.8 °F 70% 29.98 in 10.0 mi SSE 11.5 mph - N/A   Clear
4:35 PM 80.6 °F 82.7 °F 66.2 °F 61% 29.98 in 10.0 mi SSE 11.5 mph - N/A   Clear
4:40 PM 80.6 °F 83.2 °F 68.0 °F 65% 29.98 in 10.0 mi SSE 11.5 mph - N/A   Clear
4:55 PM 80.6 °F 83.2 °F 68.0 °F 65% 29.98 in 10.0 mi South 11.5 mph 16.1 mph N/A   Clear
5:00 PM 80.6 °F 83.9 °F 69.8 °F 70% 29.98 in 10.0 mi South 9.2 mph 16.1 mph N/A   Clear
5:15 PM 80.6 °F 83.2 °F 68.0 °F 65% 29.98 in 10.0 mi South 13.8 mph - N/A   Clear
5:35 PM 78.8 °F - 68.0 °F 69% 29.98 in 10.0 mi South 11.5 mph 17.3 mph N/A   Clear
6:00 PM 78.8 °F - 68.0 °F 69% 29.97 in 10.0 mi SSE 13.8 mph - N/A   Clear
6:15 PM 77.0 °F - 66.2 °F 69% 29.97 in 10.0 mi South 10.4 mph - N/A   Clear
6:35 PM 77.0 °F - 68.0 °F 74% 29.97 in 10.0 mi SSE 9.2 mph - N/A   Clear
6:55 PM 75.2 °F - 69.8 °F 83% 29.97 in 10.0 mi South 9.2 mph 16.1 mph N/A   Clear
7:15 PM 73.4 °F - 71.6 °F 94% 29.97 in 10.0 mi SSE 9.2 mph - N/A   Clear
7:35 PM 71.6 °F - 71.6 °F 100% 29.97 in 10.0 mi SSE 9.2 mph - N/A   Clear
7:40 PM 71.6 °F - 71.6 °F 100% 29.97 in 10.0 mi SSE 9.2 mph - N/A   Clear
7:55 PM 69.8 °F - 69.8 °F 100% 29.97 in 10.0 mi SSE 9.2 mph - N/A   Clear
8:15 PM 68.0 °F - 68.0 °F 100% 29.97 in 10.0 mi SSE 9.2 mph - N/A   Clear
8:20 PM 68.0 °F - 68.0 °F 100% 29.97 in 10.0 mi SSE 8.1 mph - N/A   Clear
8:35 PM 68.0 °F - 68.0 °F 100% 29.97 in 10.0 mi SSE 9.2 mph - N/A   Clear
9:15 PM 68.0 °F - 68.0 °F 100% 29.98 in 10.0 mi SSE 9.2 mph - N/A   Clear
9:20 PM 68.0 °F - 68.0 °F 100% 29.99 in 10.0 mi South 8.1 mph - N/A   Clear
9:35 PM 66.2 °F - 66.2 °F 100% 29.99 in 10.0 mi South 10.4 mph - N/A   Clear
9:40 PM 68.0 °F - 68.0 °F 100% 29.99 in 10.0 mi SSE 10.4 mph - N/A   Clear
9:55 PM 68.0 °F - 68.0 °F 100% 29.98 in 10.0 mi SSE 8.1 mph - N/A   Clear
10:00 PM 66.2 °F - 66.2 °F 100% 29.98 in 10.0 mi SSE 8.1 mph - N/A   Clear
10:15 PM 66.2 °F - 66.2 °F 100% 29.98 in 10.0 mi SSE 8.1 mph - N/A   Clear
10:35 PM 66.2 °F - 66.2 °F 100% 29.98 in 10.0 mi SSE 9.2 mph - N/A   Clear
10:55 PM 66.2 °F - 66.2 °F 100% 29.99 in 10.0 mi South 10.4 mph - N/A   Clear
11:00 PM 66.2 °F - 66.2 °F 100% 29.99 in 10.0 mi South 10.4 mph - N/A   Clear
11:15 PM 66.2 °F - 66.2 °F 100% 29.99 in 10.0 mi South 9.2 mph - N/A   Clear
11:20 PM 66.2 °F - 66.2 °F 100% 29.99 in 10.0 mi South 10.4 mph - N/A   Clear
11:35 PM 66.2 °F - 66.2 °F 100% 29.98 in 10.0 mi South 11.5 mph - N/A   Clear
11:55 PM 66.2 °F - 66.2 °F 100% 29.97 in 10.0 mi SSE 9.2 mph - N/A   Clear